DW4433 Weather Reports


time (UTC)temp
C
wind
direction
speed
KPH
gust
KPH
rain 1hr
cm
rain 24hr
cm
rain mn
cm
humidity
%
barometer
mb
20260506094537 16 45 0.0 1.6 0.00 0.00 0.00 48 1012.2
20260506093033 15 319 0.0 3.2 0.00 0.00 0.00 48 1012.2
20260506091531 15 256 0.0 0.0 0.00 0.00 0.00 39 1012.1
20260506090033 14 286 0.0 0.0 0.00 0.00 0.00 27 1012.1
20260506084520 14 287 0.0 0.0 0.00 0.00 0.00 18 1012.0
20260506083015 13 241 0.0 0.0 0.00 0.00 0.00 100 1011.9
20260506081508 11 280 0.0 0.0 0.00 0.00 0.00 100 1011.9
20260506073058 10 268 0.0 0.0 0.00 0.00 0.00 100 1012.0
20260506071548 10 282 0.0 0.0 0.00 0.00 0.00 100 1011.9
20260506061544 9 43 0.0 0.0 0.00 0.00 0.00 100 1011.8
20260506044556 9 270 0.0 0.0 0.00 0.00 0.00 100 1011.5
20260506043100 9 270 0.0 0.0 0.00 0.00 0.00 100 1011.3
20260506041551 10 348 0.0 0.0 0.00 0.00 0.00 100 1011.3
20260506040046 10 348 0.0 0.0 0.00 0.00 0.00 100 1011.3
20260506034541 10 103 0.0 0.0 0.00 0.00 0.00 100 1011.2
20260506033038 10 102 0.0 0.0 0.00 0.00 0.00 100 1011.3
20260506031539 10 57 0.0 0.0 0.00 0.00 0.00 100 1011.2
20260506030028 10 40 0.0 0.0 0.00 0.00 0.00 100 1011.2
20260506024534 10 355 0.0 0.0 0.00 0.00 0.00 100 1011.3
20260506023014 10 355 0.0 0.0 0.00 0.00 0.00 100 1011.4
20260506021508 11 17 0.0 0.0 0.00 0.00 0.00 100 1011.4
20260506020006 11 17 0.0 1.6 0.00 0.00 0.00 100 1011.4
20260506014557 11 14 0.0 0.0 0.00 0.00 0.00 100 1011.4
20260506013102 11 30 0.0 0.0 0.00 0.00 0.00 100 1011.3
20260506011602 11 30 0.0 0.0 0.00 0.00 0.00 100 1011.4
20260506010043 11 30 0.0 1.6 0.00 0.00 0.00 100 1011.5
20260506004509 11 49 0.0 0.0 0.00 0.00 0.00 100 1011.6
20260506003005 11 46 0.0 1.6 0.00 0.00 0.00 100 1011.5
20260506001558 11 56 0.0 1.6 0.00 0.00 0.00 100 1011.5
20260506000054 11 84 0.0 3.2 0.00 0.00 0.00 100 1011.4
20260505234600 11 267 0.0 0.0 0.00 0.00 0.00 100 1011.2
20260505233046 11 34 0.0 6.4 0.00 0.00 0.00 100 1011.4
20260505231550 11 313 0.0 11.3 0.00 0.00 0.00 100 1011.4
20260505230037 11 5 0.0 6.4 0.00 0.00 0.00 100 1011.5
20260505224534 11 40 0.0 8.0 0.00 0.00 0.00 2 1011.5
20260505223030 12 46 0.0 6.4 0.00 0.00 0.00 17 1011.4
20260505221519 12 54 0.0 11.3 0.00 0.00 0.00 27 1011.5
20260505220015 12 344 0.0 8.0 0.00 0.00 0.00 29 1011.6
20260505214518 12 10 0.0 11.3 0.00 0.00 0.00 32 1011.5
20260505213008 12 42 0.0 6.4 0.00 0.00 0.00 34 1011.5
20260505211608 12 41 0.0 6.4 0.00 0.00 0.00 38 1011.6
20260505210024 12 5 0.0 3.2 0.00 0.00 0.00 30 1011.5
20260505204520 12 18 0.0 1.6 0.00 0.00 0.00 30 1011.5
20260505203013 13 5 0.0 1.6 0.00 0.00 0.00 25 1011.4
20260505201512 13 355 0.0 0.0 0.00 0.00 0.00 25 1011.3
20260505200004 13 9 0.0 0.0 0.00 0.00 0.00 28 1011.2
20260505194501 13 360 0.0 0.0 0.00 0.00 0.00 27 1010.9
20260505193052 14 360 0.0 0.0 0.00 0.00 0.00 33 1010.8
20260505191548 14 360 0.0 0.0 0.00 0.00 0.00 36 1010.6
20260505190043 15 360 0.0 0.0 0.00 0.00 0.00 40 1010.7
20260505184539 15 360 0.0 0.0 0.00 0.00 0.00 44 1010.6
20260505183049 15 360 0.0 0.0 0.00 0.00 0.00 49 1010.5
20260505181528 15 360 0.0 3.2 0.00 0.00 0.00 51 1010.5
20260505180024 16 331 0.0 3.2 0.00 0.00 0.00 51 1010.5
20260505174519 16 34 0.0 1.6 0.00 0.00 0.00 51 1010.5
20260505173012 16 26 0.0 1.6 0.00 0.00 0.00 50 1010.6
20260505171509 17 325 0.0 1.6 0.00 0.00 0.00 49 1010.6
20260505170007 17 82 0.0 6.4 0.00 0.00 0.00 48 1010.6
20260505164606 17 355 1.6 9.7 0.00 0.00 0.00 47 1010.6
20260505163053 17 46 0.0 9.7 0.00 0.00 0.00 47 1010.6
20260505161550 17 32 0.0 8.0 0.00 0.00 0.00 47 1010.6
20260505153035 18 299 0.0 12.9 0.00 0.00 0.00 45 1010.7
20260505151529 18 5 1.6 8.0 0.00 0.00 0.00 46 1010.6
20260505124519 17 20 1.6 17.7 0.00 0.00 0.00 49 1011.2
20260505123006 18 54 0.0 11.3 0.00 0.00 0.00 49 1011.2
20260505121501 18 37 0.0 8.0 0.00 0.00 0.00 49 1011.2
20260505120051 18 348 0.0 9.7 0.00 0.00 0.00 49 1011.2
20260505114550 18 17 0.0 9.7 0.00 0.00 0.00 48 1011.2
20260505113039 18 30 0.0 11.3 0.00 0.00 0.00 48 1011.3
20260505111534 17 40 0.0 6.4 0.00 0.00 0.00 42 1011.3
20260505101526 17 288 0.0 6.4 0.00 0.00 0.00 17 1011.4
20260505100021 17 36 0.0 6.4 0.00 0.00 0.00 20 1011.4